Weather in Arsaki

Russia / Vladimir Oblast     56°23′04″N   38°28′44″E
temp.,
°C
wind,
m/s
gust,
m/s
humid.,
%
clouds,
%
prec.,
mm/h
press.,
hPa
HPBL,
m
4 march, thu
thu400:00−2wsw51395100 0.1 1004715
03:000wsw61496100 0.5 1001961
06:00+1w81697100 1.3 9981164
09:000wnw71297100 2.8 9981056
12:000nw597163 0.2 9991243
15:00−1nw467843 0.2 9991099
18:00−6nnw259295 0.1 1000104
21:00−8nw239466 0.1 100129
5 march, fri
fri500:00−9wnw239637 0.0 100255
03:00−9wnw239859 0.1 100446
06:00−10w249786 0.1 100585
09:00−6wnw489287 0.2 1006556
12:00−5nw4787100 0.3 1007797
15:00−4nw4778100 0.8 10091113
18:00−7nw2494100 0.4 1011109
21:00−9nnw229494 0.6 101436
6 march, sat
sat600:00−13ne12942 0.0 101521
03:00−12sse129041 0.0 101621
06:00−13ssw119299 0.0 101620
09:00−10nw239299 0.0 1016204
12:00−8nnw358188 0.0 1017653
15:00−8nw357554 0.0 1016823
18:00−11w128822 0.0 101521
21:00−12sw369011 0.0 1015117
7 march, sun
sun700:00−11sw4119163 0.0 1012284
03:00−9ssw5148971 0.0 1008560
06:00−7sw61590100 0.2 1003788
09:00−6sw71490100 0.6 9981127
12:00−4sw71392100 1.3 9941097
15:00−6wnw81590100 3.6 9941209
18:00−8wnw4127197 0.2 996673
21:00−10sw4137762 0.2 997405
8 march, mon
mon800:00−7wsw51479100 0.0 995854
03:00−7sw51292100 0.1 993886
06:00−8wnw5993100 0.6 992748
09:00−9w4790100 0.9 994545
12:00−9nw6118999 0.3 998864
15:00−9nw6118699 0.4 1002930
18:00−10nw41092100 0.1 1005770
21:00−11nw41094100 0.3 1008621